Total_Precipitation_Accumulation
0.03 0.04 0.09 0.21 0.49 0.86 0.92 0.68 0.59 0.54 0.57 0.50 0.47 0.46 0.58 0.76 1.08 1.92 1.28 0.80 0.54 0.40 0.46 0.47 0.63 0.61 0.59 0.59 0.64 0.73 0.88 0.93 1.06 1.04 1.04 1.08 1.14 1.09 1.04 1.14 1.32 1.54 1.79 1.97 2.13 2.35 2.70 2.90 2.84
0.05 0.08 0.17 0.33 0.69 0.91 0.88 0.64 0.61 0.54 0.50 0.48 0.45 0.46 0.48 0.60 0.58 0.76 0.80 0.80 0.71 0.60 0.56 0.49 0.65 0.68 0.61 0.62 0.70 0.80 0.93 0.99 1.15 1.14 1.00 1.05 1.11 1.12 1.09 1.18 1.34 1.61 1.92 2.19 2.22 2.30 2.55 2.58 2.58
0.06 0.10 0.24 0.47 0.70 0.74 0.83 0.63 0.65 0.58 0.48 0.46 0.52 0.55 0.62 0.79 0.83 0.97 1.05 0.91 0.88 0.76 0.65 0.64 0.75 0.77 0.75 0.74 0.80 0.88 1.00 1.09 1.20 1.10 1.08 1.15 1.22 1.23 1.24 1.25 1.31 1.55 1.98 2.29 2.24 2.25 2.30 2.35 2.47
0.07 0.15 0.32 0.55 0.60 0.49 0.63 0.65 0.61 0.66 0.55 0.50 0.54 0.72 0.77 0.85 0.93 1.01 0.94 0.84 0.80 0.71 0.62 0.59 0.74 0.79 0.82 0.80 0.79 0.96 1.07 1.15 1.23 1.25 1.22 1.25 1.41 1.45 1.36 1.39 1.51 1.62 1.95 2.27 2.29 2.32 2.30 2.30 2.42
0.08 0.20 0.43 0.61 0.50 0.41 0.47 0.56 0.70 0.76 0.72 0.59 0.62 0.94 1.26 1.24 1.13 1.03 0.90 0.87 0.88 0.72 0.65 0.57 0.69 0.81 0.81 0.88 0.95 1.12 1.26 1.32 1.40 1.42 1.37 1.38 1.50 1.57 1.50 1.56 1.68 1.81 1.95 2.19 2.27 2.22 2.18 2.16 2.32
0.11 0.24 0.42 0.53 0.50 0.46 0.48 0.55 0.66 0.73 0.67 0.57 0.70 1.15 1.82 1.68 1.33 1.41 1.37 1.03 1.01 0.88 0.77 0.67 0.71 0.93 1.03 1.05 1.09 1.22 1.25 1.34 1.42 1.50 1.47 1.43 1.44 1.42 1.44 1.57 1.68 1.88 2.05 2.14 2.10 2.01 1.99 2.05 2.16
0.15 0.23 0.32 0.41 0.58 0.59 0.53 0.57 0.66 0.67 0.71 0.73 0.96 1.43 1.93 1.85 1.55 1.59 1.58 1.21 1.13 0.95 0.79 0.76 0.75 1.01 1.30 1.33 1.22 1.23 1.19 1.31 1.43 1.54 1.58 1.44 1.38 1.31 1.37 1.48 1.57 1.78 1.92 1.92 1.97 1.92 1.85 1.87 2.06
0.11 0.15 0.23 0.32 0.61 0.64 0.59 0.62 0.61 0.57 0.68 0.84 1.11 1.47 1.84 1.82 1.57 1.44 1.43 1.35 1.26 1.21 1.05 1.03 1.03 1.13 1.25 1.29 1.30 1.26 1.23 1.34 1.46 1.52 1.57 1.52 1.50 1.46 1.50 1.44 1.55 1.69 1.92 2.11 2.17 2.05 1.89 1.89 2.07
0.10 0.15 0.23 0.32 0.57 0.62 0.55 0.52 0.51 0.49 0.58 0.86 1.00 1.05 1.36 1.49 1.48 1.57 1.60 1.49 1.47 1.45 1.49 1.41 1.34 1.36 1.36 1.33 1.34 1.46 1.46 1.51 1.53 1.60 1.58 1.58 1.67 1.75 1.76 1.56 1.69 1.82 2.05 2.35 2.36 2.24 2.17 2.10 2.23
0.11 0.21 0.24 0.25 0.32 0.43 0.47 0.49 0.43 0.50 0.57 0.87 1.23 1.15 1.13 1.36 1.58 1.76 1.88 1.84 1.82 1.81 1.84 1.80 1.81 1.77 1.72 1.64 1.83 1.97 1.75 1.69 1.67 1.85 1.69 1.73 2.07 2.15 1.90 2.06 2.25 2.46 2.57 2.60 2.49 2.37 2.29 2.21 2.27
0.11 0.17 0.22 0.27 0.26 0.33 0.39 0.45 0.40 0.55 0.77 0.89 1.29 1.62 1.49 1.65 1.93 2.22 2.17 2.30 2.34 2.22 1.95 1.89 2.13 2.21 2.27 2.40 2.30 2.32 2.31 2.28 2.20 2.33 2.23 2.27 2.40 2.31 2.41 2.61 2.56 2.57 2.69 2.62 2.67 2.47 2.16 2.12 2.32
0.13 0.17 0.22 0.24 0.24 0.24 0.29 0.41 0.47 0.59 0.93 1.04 1.34 1.63 1.95 2.00 2.21 2.31 2.42 2.49 2.53 2.59 2.41 2.11 2.13 2.20 2.39 2.58 2.59 2.55 2.47 2.42 2.40 2.54 2.37 2.49 2.68 2.81 2.90 3.10 2.92 2.88 2.86 3.00 2.96 2.79 2.46 2.21 2.17
0.15 0.16 0.18 0.21 0.19 0.17 0.31 0.43 0.44 0.53 0.67 0.92 1.16 1.39 1.81 1.91 2.02 2.37 2.71 3.00 3.03 2.95 2.87 2.61 2.33 2.31 2.49 2.80 2.95 2.91 2.99 2.81 2.84 2.96 2.74 2.69 2.77 2.85 3.22 3.33 3.64 3.32 3.24 3.40 3.34 3.10 2.94 2.64 2.45
0.14 0.13 0.15 0.19 0.17 0.19 0.28 0.36 0.43 0.47 0.58 0.74 0.84 1.08 1.42 1.69 2.00 2.62 3.06 3.35 3.62 3.47 3.18 2.91 2.78 2.68 2.66 2.81 3.15 3.27 3.10 3.12 3.09 3.19 3.11 3.03 3.08 3.21 3.57 3.75 3.96 3.79 3.79 4.02 4.04 3.80 3.58 3.28 3.19
0.13 0.15 0.19 0.19 0.21 0.19 0.23 0.40 0.47 0.53 0.57 0.68 0.76 0.96 1.36 1.85 2.14 2.86 3.42 3.74 3.96 3.69 3.55 3.32 3.24 3.33 3.12 3.02 3.31 3.44 3.31 3.21 3.23 3.42 3.49 3.36 3.43 3.77 3.91 4.29 4.32 4.14 4.13 4.20 4.22 4.47 4.40 3.88 3.60
0.16 0.24 0.33 0.23 0.21 0.18 0.24 0.51 0.56 0.59 0.65 0.76 0.86 1.07 1.42 1.88 2.20 2.55 2.97 3.40 3.86 3.92 3.74 3.61 3.26 3.29 3.51 3.51 3.79 3.72 3.77 3.91 3.85 3.87 4.06 3.96 4.00 4.11 4.18 4.26 4.37 4.32 4.31 4.69 4.91 4.86 4.78 4.53 4.16
0.19 0.23 0.27 0.27 0.20 0.20 0.22 0.42 0.58 0.59 0.62 0.78 0.93 1.26 1.71 1.84 2.13 2.24 2.60 2.89 3.31 3.41 3.55 3.62 3.56 3.53 3.57 3.78 4.21 4.39 4.61 4.74 4.86 4.87 5.06 4.94 4.69 4.60 4.69 4.70 4.89 4.74 4.82 4.91 4.78 5.23 5.20 5.08 4.64
0.13 0.16 0.19 0.26 0.21 0.21 0.24 0.35 0.61 0.74 0.73 0.85 0.98 1.20 1.58 1.73 2.15 2.37 2.50 2.55 3.07 3.43 3.57 3.67 3.85 4.08 4.09 4.19 4.53 5.02 5.22 5.29 5.58 5.59 5.59 5.63 5.60 5.46 5.49 5.46 5.50 5.34 5.23 5.25 5.27 5.40 5.14 4.96 4.75
0.09 0.13 0.15 0.18 0.17 0.19 0.30 0.46 0.65 0.80 0.84 1.07 1.30 1.41 1.46 1.66 2.16 2.59 2.73 2.84 3.25 3.57 3.78 3.71 3.93 4.38 4.67 5.08 5.13 5.37 5.82 6.12 6.19 6.21 6.17 6.06 5.99 6.03 5.91 5.74 5.91 5.71 5.45 5.28 5.29 5.29 5.18 4.80 4.77
0.06 0.11 0.14 0.17 0.18 0.20 0.36 0.59 0.68 0.79 0.90 1.23 1.49 1.51 1.48 1.66 2.02 2.49 2.73 3.11 3.43 3.56 3.82 3.98 4.16 4.71 5.19 5.76 6.29 6.69 7.10 7.11 7.21 7.15 7.03 6.63 6.43 6.36 6.16 6.21 6.02 5.81 5.70 5.43 5.26 5.28 5.19 4.81 4.87
0.05 0.07 0.11 0.16 0.21 0.26 0.40 0.74 0.88 1.00 1.10 1.32 1.46 1.44 1.54 1.73 2.06 2.38 2.69 3.08 3.42 3.59 3.88 4.09 4.50 5.16 6.00 6.65 7.13 7.63 7.97 7.70 7.49 7.17 6.99 6.83 6.78 6.71 6.55 6.49 6.20 6.01 5.77 5.43 5.18 5.07 5.03 4.93 4.94
0.08 0.09 0.09 0.12 0.23 0.38 0.43 0.85 1.21 1.35 1.47 1.47 1.48 1.60 1.74 1.87 2.04 2.29 2.60 2.96 3.27 3.64 3.82 4.08 4.85 5.58 6.24 6.89 7.50 8.05 8.31 8.30 8.07 7.46 6.96 6.59 6.32 6.02 5.93 5.96 5.84 5.70 5.39 5.15 4.79 4.69 4.67 4.86 4.69
0.09 0.09 0.11 0.15 0.21 0.35 0.43 0.80 1.45 1.77 1.84 1.83 1.86 1.90 1.89 1.87 1.99 2.18 2.45 2.73 2.94 3.36 3.79 4.14 4.88 5.69 6.37 7.15 7.91 8.35 8.51 8.44 8.05 7.29 6.59 6.04 5.66 5.26 5.01 5.07 5.03 4.86 4.65 4.50 4.45 4.52 4.42 4.34 4.16
0.08 0.12 0.17 0.22 0.30 0.47 0.48 0.79 1.58 2.02 2.18 2.21 2.11 2.11 2.02 1.91 1.88 1.95 2.24 2.44 2.78 3.19 3.68 4.22 4.66 5.37 6.19 6.80 7.34 7.51 7.63 7.57 7.18 6.76 6.25 5.86 5.33 4.78 4.35 4.23 4.17 3.99 3.84 3.86 3.90 4.01 3.93 3.95 3.97
0.10 0.21 0.44 0.59 0.66 0.61 0.49 0.83 1.59 1.90 1.86 1.95 1.97 2.01 1.97 1.82 1.85 2.09 2.39 2.37 2.72 3.14 3.58 4.09 4.55 5.05 5.71 6.29 6.71 6.85 6.99 6.93 6.47 5.99 5.54 5.10 4.54 4.09 3.77 3.61 3.60 3.48 3.41 3.40 3.58 3.69 3.57 3.51 3.57
0.11 0.21 0.49 0.75 0.78 0.79 0.76 1.24 1.81 1.92 1.78 1.64 1.72 1.81 1.90 1.92 1.94 2.08 2.26 2.39 2.75 3.02 3.29 3.69 4.06 4.52 4.85 5.16 5.62 5.86 6.00 5.82 5.45 5.00 4.45 4.10 3.74 3.41 3.28 3.19 3.14 3.05 2.93 2.87 3.13 3.24 3.24 3.25 3.29
0.13 0.18 0.28 0.38 0.46 0.79 1.22 1.60 2.02 2.01 1.89 1.72 1.63 1.67 1.80 1.81 1.93 2.15 2.33 2.50 2.72 3.08 3.53 3.71 3.73 4.00 4.27 4.57 4.76 4.80 4.83 4.70 4.47 4.20 3.85 3.47 3.14 2.86 2.73 2.69 2.69 2.67 2.66 2.71 2.94 3.00 2.92 3.00 2.96
0.12 0.16 0.23 0.39 0.73 1.04 1.39 2.04 2.44 2.53 2.48 2.33 1.92 1.79 1.74 1.84 1.97 2.12 2.27 2.46 2.58 2.71 3.09 3.42 3.50 3.59 3.69 3.84 3.87 3.78 3.91 3.81 3.74 3.59 3.34 3.04 2.83 2.62 2.59 2.50 2.47 2.50 2.46 2.46 2.62 2.71 2.76 2.78 2.73
0.18 0.20 0.26 0.40 0.56 1.02 1.53 2.28 2.50 2.81 2.92 2.78 2.38 2.23 2.21 2.25 2.18 2.14 2.12 2.18 2.38 2.50 2.67 2.97 3.24 3.35 3.41 3.51 3.47 3.36 3.46 3.45 3.47 3.34 3.15 3.02 2.95 2.82 2.67 2.56 2.60 2.57 2.47 2.42 2.44 2.32 2.40 2.52 2.63
0.17 0.22 0.34 0.63 0.70 0.78 1.36 2.45 2.71 2.88 2.82 2.57 2.45 2.36 2.23 2.13 1.98 1.93 1.90 1.96 2.10 2.33 2.61 2.87 3.07 3.02 3.04 3.13 3.27 3.36 3.43 3.37 3.29 3.08 2.95 2.84 2.68 2.53 2.51 2.49 2.52 2.47 2.38 2.38 2.28 2.13 2.23 2.37 2.48